This is the latest recevied weather packets stored in our database for station/object DH8TOM-4. If no packets are shown the sender has not sent any weather packets the latest 10 day(s).
| Time | Temp. | Humidity | Pressure | Rain* | Wind** | Luminosity | Snow |
|---|---|---|---|---|---|---|---|
| 1787911561 | 24.44° C | 72% | 1008.2 hPa | - | - | - | - |
| 1787911260 | 24.44° C | 72% | 1008.2 hPa | - | - | - | - |
| 1787910960 | 25° C | 72% | 1008.6 hPa | - | - | - | - |
| 1787910658 | 25° C | 72% | 1008.6 hPa | - | - | - | - |
| 1787910357 | 25.56° C | 72% | 1008.6 hPa | - | - | - | - |
| 1787910056 | 25.56° C | 72% | 1008.6 hPa | - | - | - | - |
| 1787909756 | 25° C | 74% | 1009.2 hPa | - | - | - | - |
| 1787909454 | 23.89° C | 75% | 1009.3 hPa | - | - | - | - |
| 1787909153 | 23.89° C | 75% | 1009.3 hPa | - | - | - | - |
| 1787908853 | 23.89° C | 75% | 1009.3 hPa | - | - | - | - |
| 1787908551 | 23.33° C | 76% | 1009.8 hPa | - | - | - | - |
| 1787908250 | 23.33° C | 76% | 1009.8 hPa | - | - | - | - |
| 1787907950 | 23.33° C | 78% | 1010.3 hPa | - | - | - | - |
| 1787907648 | 22.22° C | 80% | 1009.9 hPa | - | - | - | - |
| 1787907347 | 22.22° C | 80% | 1009.9 hPa | - | - | - | - |
| 1787907047 | 21.67° C | 79% | 1009.2 hPa | - | - | - | - |
| 1787906745 | 21.67° C | 79% | 1009.2 hPa | - | - | - | - |
| 1787906445 | 21.67° C | 79% | 1009.2 hPa | - | - | - | - |
| 1787906143 | 21.67° C | 79% | 1008.7 hPa | - | - | - | - |
| 1787905842 | 21.67° C | 79% | 1008.7 hPa | - | - | - | - |
| 1787905542 | 21.67° C | 81% | 1008.8 hPa | - | - | - | - |
| 1787905240 | 21.67° C | 81% | 1008.8 hPa | - | - | - | - |
| 1787904940 | 21.11° C | 81% | 1008.6 hPa | - | - | - | - |
| 1787904638 | 21.11° C | 81% | 1008.6 hPa | - | - | - | - |
| 1787904338 | 21.11° C | 81% | 1009.2 hPa | - | - | - | - |
* Rain since midnight (hover to see other rain measurements)
** Current wind speed in m/s (hover to see current wind gust speed)